View from above orbital plane
|
View from above satellite
|
Ground track
|
The orbit data is extracted from the following two-line orbital elements,
1 00012U 59001B 21056.75317451 .00000111 00000-0 55886-4 0 9994
2 00012 32.9039 184.6900 1666231 327.6825 23.1534 11.44395742309007
Epoch (UTC): | 25 February 2021 18:04:34 |
Eccentricity: | 0.1666231 |
inclination: | 32.9039° |
perigee height: | 554 km |
apogee height: | 3326 km |
right ascension of ascending node: | 184.6900° |
argument of perigee: | 327.6825° |
revolutions per day: | 11.44395742 |
mean anomaly at epoch: | 23.1534° |
orbit number at epoch: | 30900 |
The dashed part of the orbit path shows where the satellite is in the earth's shadow,
|
|